Flag for U.S.A. Weather past 2 weeks in Germantown, Maryland, U.S.A.

59 °F


Feels Like: 60 °F
Forecast: 59 / 78 °F
Wind: 3 mph from South

Location: Frederick Municipal Airport

Current Time: Oct 9, 2015 at 8:45:47 AM

Latest Report: Oct 9, 2015 at 7:55 AM

Visibility: 3 mi

Pressure: 30.00 "Hg

Humidity: 100%

Dew point: 59 °F

Location of GermantownLocation

Historic Weather in Germantown — Graph


Germantown temperature yesterday

Maximum temperature yesterday: 79 °F (at 12:47 PM)
Minimum temperature yesterday: 50 °F (at 5:30 AM)
Average temperature yesterday: 59 °F

Past Weeks' High & Low Weather Summary

High82 °F (Sep 28, 1:55 PM)100% (Sep 24, 8:45 AM)30.45 "Hg (Sep 24, 8:45 AM)
Low41 °F (Oct 6, 5:00 AM)41% (Oct 6, 1:55 PM)29.71 "Hg (Sep 30, 4:55 AM)
Average59 °F91%30.16 "Hg
* Reported Sep 24 7:48 AM — Oct 9 7:55 AM, Germantown, Weather by CustomWeather, © 2015

Note: Actual official high and low records may vary slightly from our data, if they occured in-between our weather recording intervals... More about our weather records


Germantown weather history for previous 24 hours

Time TempWeatherWind HumidityBarometerVisibility
7:55 AM
Fri, Oct 9
59 °FFog.3 mph100%30.00 "Hg3 mi
6:50 AM57 °FFog.3 mph100%30.01 "Hg3 mi
6:20 AM57 °FFog.No wind100%30.01 "Hg3 mi
6:10 AM57 °FFog.No wind100%30.02 "Hg4 mi
5:50 AM59 °FFog.No wind100%30.01 "Hg4 mi
5:30 AM57 °FLight rain. Partly cloudy.No wind100%30.02 "Hg4 mi
5:10 AM55 °FFog.No wind100%30.02 "Hg3 mi
4:50 AM55 °FFog.No wind100%30.02 "Hg3 mi
4:30 AM54 °FFog.No wind100%30.02 "Hg2 mi
4:10 AM55 °FFog.No wind100%30.02 "Hg4 mi
3:50 AM54 °FFog.No wind100%30.03 "Hg3 mi
3:30 AM55 °FFog.No wind100%30.04 "Hg1 mi
3:10 AM54 °FFog.No wind100%30.05 "Hg1 mi
2:50 AM54 °FFog.No wind100%30.05 "Hg1 mi
2:30 AM55 °FClear.No wind100%30.05 "Hg7 mi
2:10 AM54 °FFog.No wind100%30.06 "Hg1 mi
1:50 AM55 °FFog.No wind100%30.07 "Hg2 mi
1:30 AM55 °FFog.No wind100%30.07 "Hg3 mi
1:10 AM55 °FFog.No wind100%30.08 "Hg1 mi
12:50 AM55 °FFog.No wind100%30.09 "Hg1 mi
12:10 AM55 °FFog.No wind100%30.10 "Hg2 mi
11:30 PM
Thu, Oct 8
55 °FFog.No wind100%30.10 "Hg2 mi
10:50 PM57 °FFog.No wind100%30.10 "Hg3 mi
10:30 PM57 °FFog.No wind100%30.10 "Hg5 mi
10:10 PM59 °FClear.No wind100%30.11 "Hg7 mi
9:50 PM59 °FPassing clouds.No wind100%30.11 "Hg7 mi
9:30 PM59 °FClear.No wind100%30.11 "Hg7 mi
9:10 PM59 °FClear.No wind100%30.11 "Hg7 mi
8:50 PM63 °FClear.No wind88%30.11 "Hg10 mi
8:30 PM61 °FClear.No wind100%30.10 "Hg10 mi
7:50 PM64 °FClear.No wind88%30.10 "Hg10 mi
6:50 PM70 °FSunny.3 mph73%30.09 "Hg10 mi
5:48 PM75 °FSunny.No wind61%30.09 "Hg10 mi
4:45 PM75 °FPassing clouds.No wind54%30.10 "Hg10 mi
3:47 PM75 °FScattered clouds.No wind54%30.10 "Hg10 mi
2:47 PM77 °FSunny.5 mph51%30.12 "Hg10 mi
1:47 PM75 °FSunny.No wind54%30.14 "Hg10 mi
12:47 PM79 °FSunny.No wind51%30.17 "Hg10 mi
11:45 AM72 °FSunny.No wind69%30.18 "Hg10 mi
10:50 AM70 °FSunny.No wind73%30.18 "Hg7 mi
9:50 AM63 °FSunny.No wind88%30.19 "Hg7 mi
8:50 AM57 °FFog.No wind100%30.18 "Hg7 mi
Weather by CustomWeather, © 2015

See weather overviewHow to use our weather pages